Ridgecrest, CA

2:37 PM PST on February 21, 2017 (GMT -0800)
China Lake NAWS

Weather History for KNID - September, 2011

Change the Weather History Date:

Thursday, September 22, 2011

  Actual Average Record
Temperature  
Mean Temperature 80 °F -  
Max Temperature 100 °F 89 °F 100 °F (2003)
Min Temperature 62 °F 60 °F 43 °F (2004)
Cooling Degree Days 16    
Growing Degree Days 30 (Base 50)    
Moisture  
Dew Point 31 °F    
Average Humidity 18    
Maximum Humidity 38    
Minimum Humidity 8    
Precipitation  
Precipitation 0.00 in - - ()
Sea Level Pressure  
Sea Level Pressure 29.93 in    
Wind  
Wind Speed 4 mph (South)    
Max Wind Speed 12 mph    
Max Gust Speed 18 mph    
Visibility 10 miles    
Events      
Averages and records for this station are not official NWS values.
T = Trace of Precipitation, MM = Missing Value Source: NWS Daily Summary

Daily Weather History Graph

Daily Weather History Graph

Search for Another Location

Airport or City:

Trip Planner

Search our weather history database for the weather conditions in past years. The results will help you decide how hot, cold, wet, or windy it might be!

Date:

Astronomy

Sep. 22, 2011 Rise Set
Actual Time 6:38 AM PDT 6:47 PM PDT
Civil Twilight 6:13 AM PDT 7:13 PM PDT
Nautical Twilight 5:43 AM PDT 7:43 PM PDT
Astronomical Twilight 5:13 AM PDT 8:13 PM PDT
Moon 1:14 AM PDT (9/22) 3:34 PM PDT (9/22)
Length of Visible Light 13h 00m
Length of Day
12h 09m
Waning Crescent, 27% of the Moon is Illuminated
Sep 22
Waning Crescent
Sep 27
New
Oct 3
First Quarter
Oct 11
Full
Oct 19
Last Quarter

Hourly Weather History & Observations

Time (PDT) Temp. Dew Point Humidity Pressure Visibility Wind Dir Wind Speed Gust Speed Precip Events Conditions
12:56 AM 71.1 °F 35.1 °F 27% 29.87 in 10.0 mi Calm Calm - N/A   Clear
1:56 AM 68.0 °F 34.0 °F 28% 29.88 in 10.0 mi South 3.5 mph - N/A   Clear
2:56 AM 64.9 °F 32.0 °F 29% 29.88 in 10.0 mi West 5.8 mph - N/A   Clear
3:56 AM 64.9 °F 32.0 °F 29% 29.89 in 10.0 mi South 5.8 mph - N/A   Clear
4:56 AM 66.0 °F 32.0 °F 28% 29.89 in 10.0 mi SW 9.2 mph - N/A   Clear
5:56 AM 63.0 °F 32.0 °F 31% 29.91 in 10.0 mi Calm Calm - N/A   Clear
6:56 AM 62.1 °F 36.0 °F 38% 29.95 in 10.0 mi Calm Calm - N/A   Clear
7:56 AM 73.0 °F 33.1 °F 23% 29.96 in 10.0 mi Calm Calm - N/A   Clear
8:56 AM 79.0 °F 34.0 °F 20% 29.97 in 10.0 mi Variable 3.5 mph - N/A   Clear
9:56 AM 84.9 °F 34.0 °F 16% 29.98 in 10.0 mi Calm Calm - N/A   Clear
10:56 AM 89.1 °F 33.1 °F 14% 29.99 in 10.0 mi Calm Calm - N/A   Partly Cloudy
11:56 AM 93.9 °F 32.0 °F 11% 29.97 in 10.0 mi Variable 4.6 mph - N/A   Partly Cloudy
12:56 PM 97.0 °F 28.9 °F 9% 29.96 in 10.0 mi Variable 4.6 mph - N/A   Partly Cloudy
1:56 PM 98.1 °F 27.0 °F 8% 29.94 in 10.0 mi ENE 10.4 mph - N/A   Partly Cloudy
2:56 PM 99.0 °F 27.0 °F 8% 29.92 in 10.0 mi East 10.4 mph 18.4 mph N/A   Partly Cloudy
3:56 PM 99.0 °F 27.0 °F 8% 29.91 in 10.0 mi NE 11.5 mph - N/A   Partly Cloudy
4:56 PM 99.0 °F 26.1 °F 8% 29.90 in 10.0 mi Variable 3.5 mph - N/A   Partly Cloudy
5:56 PM 97.0 °F 25.0 °F 8% 29.90 in 10.0 mi East 4.6 mph - N/A   Partly Cloudy
6:56 PM 93.0 °F 26.1 °F 9% 29.91 in 10.0 mi Calm Calm - N/A   Scattered Clouds
7:56 PM 84.9 °F 28.0 °F 13% 29.93 in 10.0 mi SSE 5.8 mph - N/A   Partly Cloudy
8:56 PM 82.0 °F 28.9 °F 14% 29.95 in 10.0 mi SSW 5.8 mph - N/A   Clear
9:56 PM 81.0 °F 30.9 °F 16% 29.96 in 10.0 mi SSW 10.4 mph - N/A   Clear
10:56 PM 77.0 °F 30.0 °F 18% 29.97 in 10.0 mi Variable 3.5 mph - N/A   Clear
11:56 PM 75.0 °F 28.9 °F 18% 29.97 in 10.0 mi West 5.8 mph - N/A   Clear